Wind_Speed
10 10 9 9 8 7 6 6 5 5 5 5 4 5 5 6 7 7 7 8 8 7 6 5 6 5 5 3 3 4 4 3 3 3 3 3 3 3 4 3 3 2 2 2
12 11 10 10 10 9 8 8 7 8 7 7 6 5 5 5 6 6 7 7 8 7 6 6 5 5 4 3 3 3 3 2 1 2 2 2 2 2 2 2 1 1 1 1
13 12 12 11 11 10 10 10 9 9 9 8 8 5 4 5 6 6 7 7 8 7 7 6 5 4 3 3 3 3 3 2 2 1 1 0 1 1 2 2 2 1 1 1
15 14 14 13 13 12 12 12 11 11 11 10 9 7 5 6 6 7 7 8 8 7 7 6 5 4 4 3 4 3 3 3 3 2 1 1 1 1 1 1 1 1 1 1
15 15 16 16 14 14 13 13 13 14 14 13 11 9 7 7 7 8 8 8 8 8 7 6 6 5 5 5 5 5 4 4 3 3 3 3 3 3 2 2 2 3 3 3
16 16 17 17 17 16 15 16 16 16 16 15 13 12 9 9 8 9 9 9 9 8 8 7 6 6 7 6 6 6 6 5 6 5 4 5 5 5 5 4 4 4 4 4
17 17 18 18 18 18 17 17 18 18 17 16 15 14 11 10 10 11 10 10 10 9 7 7 7 7 7 7 7 7 7 7 8 7 6 6 7 7 7 7 6 6 6 6
18 18 18 19 19 19 19 18 19 19 20 19 18 16 13 12 11 11 11 11 10 10 9 8 8 7 7 7 7 8 8 9 9 8 9 9 9 9 8 8 9 9 9 9
19 18 19 20 20 20 21 20 20 20 20 21 20 19 16 13 12 13 13 12 11 11 11 10 10 10 9 9 9 9 10 10 10 10 11 10 10 11 11 11 11 11 11 11
20 20 20 21 21 21 22 22 22 22 22 22 21 20 18 16 16 16 15 14 13 13 12 12 12 12 11 11 11 11 12 12 13 13 13 12 12 13 13 13 13 14 13 14
21 21 21 22 23 23 23 24 24 25 25 25 24 21 19 19 18 18 17 16 15 14 14 14 14 14 14 14 14 14 14 15 15 15 14 15 15 15 15 15 16 16 16 16
22 22 22 23 24 25 26 26 26 26 26 26 26 23 20 20 20 19 19 19 17 17 16 16 16 17 16 16 15 15 16 17 17 16 16 17 18 18 18 18 19 19 19 19
24 25 25 25 26 27 27 26 27 27 28 28 28 25 23 23 22 22 21 21 21 20 19 19 19 19 19 18 19 18 18 18 18 19 19 19 19 20 20 21 21 22 22 22
26 26 27 27 27 27 27 27 28 29 29 29 28 27 26 25 25 24 23 23 23 22 22 21 21 21 21 21 21 21 20 20 20 21 21 21 21 22 22 23 23 24 24 25
28 28 28 27 28 28 29 28 29 30 30 30 28 27 26 26 26 26 25 24 24 24 23 23 23 23 23 24 24 24 23 23 23 24 24 23 24 25 25 25 25 25 26 26
29 29 29 28 28 29 29 29 29 29 30 30 29 28 27 27 27 27 26 25 25 25 25 25 25 25 25 26 26 25 25 25 25 25 25 25 26 27 27 26 27 27 27 27
31 30 30 29 29 29 29 28 29 29 29 30 29 28 28 28 29 28 27 27 27 27 27 28 28 27 27 27 27 26 26 26 26 26 26 26 27 28 29 28 28 28 28 28
31 31 31 31 30 31 29 28 29 29 30 30 30 29 29 29 29 29 29 29 29 29 29 29 30 30 29 28 28 28 28 28 27 27 28 28 29 29 30 29 28 28 28 29
32 31 32 32 32 31 30 29 29 29 30 30 30 29 30 30 30 30 30 30 29 30 30 31 31 31 30 29 29 29 28 28 28 29 29 29 29 30 31 31 30 29 29 30
33 33 33 33 33 32 30 29 29 30 30 29 29 30 30 30 30 29 29 30 29 30 31 31 30 31 31 30 30 29 29 29 29 30 30 30 30 31 31 32 31 30 30 30
33 34 34 33 33 33 31 31 30 31 30 29 29 29 30 30 29 29 29 28 28 29 30 31 31 31 31 32 30 29 29 30 30 30 30 30 30 31 31 32 33 32 31 31
33 33 33 33 34 33 32 32 32 31 30 30 29 30 30 29 29 29 28 29 29 29 30 31 32 33 33 32 32 30 30 31 31 31 31 31 31 32 32 32 32 32 32 32
32 33 33 33 32 32 32 32 32 32 31 30 30 30 30 30 29 29 28 29 29 30 30 31 32 33 33 33 31 31 31 32 31 31 31 31 32 32 32 33 33 32 32 32
33 33 32 33 32 32 32 32 31 31 31 31 30 29 30 30 29 29 28 28 28 29 30 29 30 31 32 32 32 32 32 32 32 31 31 31 31 32 33 33 33 32 32 32
33 33 32 32 32 32 32 32 32 32 32 31 30 30 29 29 29 28 28 28 28 29 29 28 29 30 30 31 31 31 32 33 33 31 30 31 31 32 32 32 32 32 32 32
31 31 32 32 32 31 31 31 32 32 32 31 31 30 29 28 27 28 28 28 28 28 28 29 29 30 30 31 32 33 33 33 32 31 30 29 30 30 30 31 31 31 31 31
Wind_Direction
223 223 223 228 236 241 246 251 266 278 288 299 322 346 359 3 7 5 358 357 0 2 359 352 348 342 339 352 11 12 13 19 45 68 78 78 84 98 99 100 101 104 106 103
228 230 231 233 239 247 256 263 268 268 272 282 304 331 339 339 344 346 344 344 349 351 348 342 332 327 323 324 350 352 360 19 53 69 103 106 100 109 109 98 113 119 118 119
231 231 234 238 243 253 262 268 270 267 269 276 291 302 320 323 327 329 333 334 333 338 333 340 333 325 319 314 321 325 333 344 342 358 26 125 133 142 155 142 136 134 149 252
232 233 236 241 247 254 259 268 273 274 271 271 281 283 294 301 304 313 318 327 330 333 321 319 328 318 316 293 295 301 301 307 309 301 308 308 257 238 213 185 194 210 221 250
236 237 241 245 251 255 259 263 267 271 272 272 276 281 291 290 294 302 306 315 320 327 321 319 329 319 310 296 288 281 281 281 289 291 285 280 276 276 273 257 252 253 256 265
238 240 243 246 250 255 259 262 267 267 268 269 275 278 282 282 288 291 297 304 309 314 313 316 315 312 308 299 290 278 274 282 290 284 276 275 273 272 275 268 264 268 271 279
240 243 245 248 251 256 260 263 268 268 266 269 273 274 282 284 283 286 290 296 300 307 304 304 310 308 302 298 294 281 281 285 286 281 279 275 275 275 267 268 274 272 271 275
242 243 247 250 253 255 258 262 268 269 267 267 269 273 279 283 280 282 288 292 294 297 295 295 296 296 290 286 287 285 280 280 280 277 276 277 277 276 270 271 274 276 276 276
248 247 248 250 252 254 256 261 267 268 267 266 268 272 273 275 275 278 284 285 288 288 288 288 287 286 284 280 277 278 276 275 273 273 273 274 275 274 276 276 278 279 282 280
251 251 248 251 254 254 256 260 264 267 269 270 271 274 275 277 277 278 279 279 281 281 280 282 284 283 282 280 278 274 269 268 268 268 268 268 271 276 280 285 287 283 282 284
252 253 251 252 254 257 259 261 264 267 269 270 273 274 276 276 277 276 274 275 275 278 281 282 282 283 285 281 278 275 274 272 271 267 269 269 268 272 277 282 285 282 281 282
256 256 255 255 257 257 259 262 265 267 269 270 274 276 273 271 275 276 274 273 274 274 275 279 280 280 284 284 282 280 277 274 270 268 269 270 270 272 274 279 283 283 281 282
259 260 261 257 257 258 260 262 264 267 268 269 271 275 275 272 273 274 273 272 273 272 272 275 278 278 279 280 281 280 278 275 270 267 268 270 272 272 273 275 279 282 280 281
259 262 263 263 262 262 262 263 264 266 267 269 272 275 274 271 271 272 271 271 274 274 272 272 275 277 278 279 280 277 276 275 274 272 271 273 273 273 274 275 276 278 278 279
260 261 262 262 260 261 263 264 265 266 267 269 271 272 272 270 271 272 273 274 274 274 271 271 272 274 276 278 279 277 274 272 273 274 273 273 273 271 272 273 274 275 277 276
259 260 261 261 261 262 263 264 265 266 267 269 270 270 271 271 271 272 273 274 273 272 269 270 272 273 275 278 280 280 275 274 276 275 273 270 271 271 271 272 273 276 276 276
260 261 263 263 264 263 263 263 264 265 267 269 269 271 270 270 271 272 272 273 272 271 270 270 271 272 274 278 279 281 276 275 277 276 274 271 270 271 271 271 273 275 276 276
259 261 264 265 266 264 266 267 266 266 267 268 269 269 270 270 270 271 273 271 271 270 271 271 274 274 274 276 278 279 278 277 277 276 274 273 271 270 271 271 273 273 274 274
257 260 263 265 267 267 267 269 269 267 267 267 269 269 269 270 271 272 272 271 271 270 271 272 274 275 275 277 278 279 278 276 276 276 276 275 273 271 271 272 274 274 273 274
256 258 261 265 268 268 269 269 269 269 268 268 268 268 269 270 271 271 270 270 270 271 273 273 273 275 276 277 279 278 278 279 279 278 278 277 277 276 273 272 273 274 275 275
256 257 260 263 266 267 270 270 270 269 270 270 269 270 270 270 273 272 270 270 270 272 273 274 274 275 276 277 278 279 281 282 280 279 278 277 277 277 276 274 274 275 276 275
257 258 259 262 264 267 269 270 270 271 270 269 269 269 269 270 271 272 272 272 272 273 275 275 275 276 277 279 279 281 283 283 281 280 279 277 276 276 275 274 276 277 277 277
257 259 259 261 263 265 267 268 270 271 270 270 271 271 271 271 269 268 270 273 275 274 275 278 277 278 279 280 280 283 284 284 283 281 279 278 276 276 275 275 276 276 276 275
257 259 259 260 261 262 263 265 268 271 272 273 273 274 274 273 271 270 271 275 277 278 278 278 280 282 282 281 280 282 284 285 286 284 280 278 277 278 278 276 276 276 276 275
258 259 259 260 261 262 261 263 265 268 271 273 274 274 274 273 271 270 271 274 275 277 278 278 279 282 285 284 283 283 285 285 285 284 283 281 280 279 279 278 277 276 276 276
256 258 260 261 262 263 264 265 266 268 270 272 273 272 271 270 270 271 272 274 275 276 278 279 278 281 284 285 284 285 286 286 285 284 283 283 283 281 280 279 278 276 275 275
Height
5910 5912 5913 5914 5914 5914 5914 5914 5914 5914 5914 5914 5914 5913 5913 5912 5912 5911 5910 5909 5907 5905 5904 5903 5903 5902 5901 5901 5900 5900 5899 5898 5898 5897 5896 5896 5896 5896 5896 5896 5896 5896 5896 5896
5909 5910 5912 5912 5912 5913 5913 5913 5913 5913 5913 5913 5913 5913 5912 5912 5911 5910 5909 5908 5907 5905 5904 5903 5902 5901 5901 5901 5900 5900 5899 5898 5898 5897 5897 5896 5896 5896 5896 5896 5896 5896 5896 5896
5907 5909 5909 5910 5910 5911 5912 5912 5912 5911 5911 5911 5912 5912 5911 5911 5910 5909 5908 5907 5907 5905 5903 5902 5901 5901 5900 5900 5900 5900 5899 5898 5898 5897 5897 5896 5896 5896 5896 5896 5896 5896 5896 5896
5904 5906 5907 5908 5909 5909 5910 5910 5910 5909 5909 5909 5910 5910 5911 5910 5909 5908 5907 5906 5905 5904 5903 5901 5900 5900 5900 5900 5899 5898 5898 5898 5897 5897 5896 5896 5896 5896 5896 5896 5896 5896 5896 5896
5902 5903 5904 5905 5906 5907 5907 5907 5908 5907 5907 5907 5908 5908 5909 5908 5907 5907 5906 5905 5904 5903 5902 5901 5900 5899 5899 5898 5898 5897 5897 5897 5897 5896 5896 5896 5896 5896 5895 5895 5895 5895 5895 5895
5899 5900 5901 5902 5903 5904 5904 5905 5905 5905 5905 5905 5906 5906 5906 5906 5905 5905 5904 5903 5902 5902 5901 5900 5899 5898 5897 5896 5895 5895 5896 5896 5895 5895 5895 5895 5895 5894 5895 5895 5894 5894 5894 5894
5896 5897 5898 5899 5900 5901 5902 5902 5902 5902 5901 5902 5903 5903 5904 5904 5903 5902 5902 5901 5900 5899 5899 5898 5897 5897 5896 5895 5894 5894 5894 5894 5894 5893 5893 5893 5893 5893 5893 5893 5893 5892 5892 5891
5892 5894 5895 5896 5897 5898 5898 5899 5899 5899 5899 5899 5899 5899 5901 5901 5900 5900 5899 5899 5898 5897 5897 5896 5895 5894 5893 5893 5892 5892 5892 5892 5891 5891 5891 5891 5891 5891 5890 5891 5891 5890 5890 5890
5888 5890 5891 5892 5892 5893 5893 5894 5895 5894 5894 5894 5895 5896 5897 5897 5897 5897 5897 5896 5895 5894 5894 5893 5892 5891 5890 5890 5890 5890 5890 5889 5889 5889 5889 5888 5888 5888 5888 5888 5888 5888 5888 5887
5883 5885 5886 5887 5888 5888 5889 5890 5890 5890 5889 5889 5891 5891 5893 5893 5893 5893 5893 5892 5892 5891 5890 5890 5889 5888 5888 5887 5887 5886 5886 5886 5885 5885 5885 5885 5885 5885 5884 5884 5884 5884 5884 5884
5878 5880 5882 5882 5882 5883 5885 5885 5885 5885 5885 5885 5885 5889 5889 5888 5889 5889 5889 5888 5887 5887 5887 5886 5885 5885 5884 5884 5883 5883 5882 5882 5881 5880 5881 5881 5881 5881 5880 5881 5881 5880 5880 5879
5873 5874 5875 5877 5878 5878 5879 5879 5880 5880 5880 5880 5880 5885 5883 5883 5883 5884 5884 5883 5883 5883 5883 5882 5881 5880 5880 5879 5879 5878 5878 5877 5876 5876 5876 5876 5876 5876 5876 5876 5876 5875 5875 5874
5867 5868 5869 5870 5873 5873 5872 5873 5874 5874 5874 5874 5875 5879 5878 5877 5877 5878 5878 5878 5878 5878 5878 5877 5876 5875 5875 5874 5874 5873 5872 5872 5871 5871 5871 5870 5870 5870 5870 5870 5870 5870 5869 5869
5861 5862 5864 5865 5865 5866 5866 5867 5867 5868 5867 5868 5869 5870 5871 5871 5871 5871 5872 5871 5871 5872 5872 5871 5871 5870 5870 5869 5868 5867 5866 5865 5865 5865 5864 5864 5864 5864 5864 5864 5864 5863 5863 5862
5854 5855 5856 5857 5858 5859 5859 5860 5861 5861 5861 5861 5862 5863 5864 5864 5865 5865 5865 5865 5865 5865 5865 5865 5864 5864 5864 5863 5862 5861 5860 5859 5858 5858 5857 5857 5857 5857 5857 5857 5857 5856 5855 5855
5847 5848 5849 5850 5851 5851 5852 5853 5853 5853 5853 5854 5855 5856 5857 5857 5858 5858 5858 5858 5858 5858 5858 5857 5857 5856 5856 5855 5854 5853 5852 5851 5851 5850 5849 5849 5849 5849 5849 5849 5849 5848 5848 5847
5839 5840 5841 5843 5844 5843 5845 5846 5846 5846 5846 5847 5848 5850 5849 5850 5850 5850 5850 5851 5850 5850 5850 5850 5849 5848 5848 5847 5846 5845 5844 5843 5843 5842 5841 5841 5841 5840 5840 5841 5840 5840 5840 5839
5832 5833 5833 5834 5836 5836 5840 5838 5838 5839 5839 5839 5840 5841 5841 5841 5842 5842 5842 5842 5842 5842 5842 5842 5841 5841 5840 5839 5838 5837 5836 5835 5834 5833 5832 5832 5831 5831 5832 5832 5832 5831 5831 5830
5824 5825 5825 5826 5826 5827 5830 5830 5830 5830 5831 5832 5832 5832 5832 5833 5833 5834 5834 5834 5834 5834 5833 5833 5833 5832 5831 5830 5830 5829 5828 5827 5826 5825 5824 5823 5822 5823 5823 5823 5822 5822 5822 5821
5815 5817 5818 5818 5818 5819 5823 5823 5822 5823 5823 5824 5823 5824 5824 5824 5825 5826 5826 5825 5825 5825 5825 5824 5824 5823 5822 5822 5821 5820 5819 5818 5817 5816 5815 5814 5814 5813 5813 5813 5812 5812 5812 5812
5807 5808 5809 5810 5810 5811 5813 5814 5814 5815 5816 5816 5815 5815 5816 5816 5817 5817 5816 5816 5816 5816 5815 5815 5815 5814 5813 5812 5811 5811 5810 5809 5807 5806 5806 5805 5805 5804 5804 5803 5802 5803 5803 5803
5798 5799 5800 5801 5802 5806 5805 5805 5806 5807 5807 5807 5807 5807 5807 5808 5808 5808 5808 5808 5808 5807 5807 5806 5805 5805 5804 5803 5802 5800 5800 5799 5798 5797 5796 5796 5796 5795 5794 5794 5793 5793 5794 5794
5789 5791 5792 5794 5796 5796 5796 5797 5798 5798 5798 5799 5799 5799 5799 5799 5799 5799 5799 5799 5799 5799 5798 5797 5796 5796 5795 5793 5792 5792 5791 5790 5788 5787 5786 5786 5786 5785 5785 5785 5785 5785 5784 5784
5780 5782 5783 5785 5786 5787 5788 5788 5789 5790 5790 5790 5790 5791 5790 5791 5791 5791 5791 5791 5790 5790 5789 5789 5788 5787 5786 5784 5783 5782 5781 5780 5778 5778 5777 5777 5776 5776 5775 5775 5775 5775 5775 5774
5771 5773 5774 5776 5778 5779 5780 5780 5781 5782 5782 5782 5782 5782 5782 5782 5782 5782 5783 5782 5782 5782 5781 5780 5779 5778 5777 5775 5774 5773 5772 5770 5769 5768 5767 5767 5767 5767 5766 5765 5765 5765 5765 5765
5763 5765 5766 5767 5769 5770 5771 5772 5772 5773 5773 5773 5773 5774 5773 5773 5773 5774 5774 5774 5773 5773 5772 5771 5770 5769 5768 5766 5765 5764 5762 5761 5759 5759 5758 5758 5758 5758 5757 5756 5756 5755 5756 5755